Total_Precipitation_Accumulation
0.45 0.45 0.41 0.36 0.33 0.33 0.34 0.37 0.39 0.40 0.42 0.45 0.49 0.52 0.53 0.54 0.55 0.58 0.58 0.63 0.70 0.75 0.79 0.91 0.99 1.02 1.06 1.11 1.20 1.29 1.44 1.56 1.43 1.22 1.16 1.22 1.28 1.25 1.08 0.90 0.75 0.68 0.58
0.60 0.65 0.71 0.69 0.62 0.54 0.41 0.38 0.42 0.47 0.49 0.50 0.53 0.54 0.52 0.55 0.63 0.70 0.69 0.74 0.79 0.80 0.81 0.84 0.83 0.88 0.99 1.01 1.07 1.12 1.23 1.42 1.38 1.29 1.33 1.36 1.39 1.33 1.24 1.06 0.87 0.76 0.71
0.85 1.00 1.11 1.09 0.91 0.69 0.50 0.43 0.45 0.50 0.54 0.55 0.61 0.68 0.71 0.71 0.71 0.76 0.82 0.84 0.78 0.73 0.73 0.73 0.71 0.73 0.78 0.86 0.96 0.95 0.97 1.10 1.24 1.32 1.43 1.50 1.57 1.46 1.28 1.14 1.02 0.92 0.74
0.70 0.89 1.03 1.10 0.91 0.69 0.54 0.48 0.42 0.41 0.45 0.50 0.59 0.69 0.78 0.83 0.86 0.82 0.78 0.76 0.71 0.67 0.62 0.59 0.61 0.64 0.66 0.70 0.80 0.85 0.87 0.96 1.10 1.20 1.38 1.58 1.60 1.64 1.52 1.30 1.20 1.14 0.90
0.39 0.56 0.72 0.82 0.68 0.48 0.37 0.31 0.29 0.34 0.41 0.52 0.63 0.71 0.84 0.90 0.85 0.82 0.75 0.71 0.70 0.63 0.56 0.52 0.50 0.49 0.51 0.57 0.60 0.66 0.74 0.84 0.89 0.98 1.14 1.39 1.53 1.62 1.58 1.40 1.26 1.27 1.15
0.33 0.38 0.49 0.54 0.46 0.32 0.20 0.16 0.20 0.29 0.37 0.45 0.52 0.58 0.62 0.58 0.58 0.55 0.52 0.51 0.53 0.51 0.48 0.48 0.44 0.39 0.42 0.43 0.41 0.46 0.54 0.60 0.71 0.85 0.93 1.13 1.33 1.42 1.53 1.62 1.50 1.34 1.29
0.35 0.35 0.41 0.46 0.40 0.28 0.17 0.15 0.19 0.27 0.33 0.38 0.40 0.44 0.46 0.46 0.36 0.31 0.30 0.32 0.37 0.40 0.42 0.44 0.35 0.30 0.37 0.40 0.37 0.32 0.35 0.38 0.46 0.64 0.77 0.88 1.10 1.29 1.45 1.63 1.62 1.55 1.47
0.31 0.32 0.42 0.49 0.46 0.36 0.30 0.27 0.30 0.34 0.37 0.39 0.38 0.39 0.44 0.41 0.31 0.24 0.21 0.21 0.27 0.31 0.36 0.42 0.42 0.38 0.38 0.40 0.40 0.35 0.31 0.31 0.33 0.39 0.50 0.67 0.92 1.28 1.46 1.53 1.66 1.70 1.69
0.29 0.36 0.41 0.50 0.52 0.46 0.43 0.43 0.45 0.46 0.44 0.43 0.41 0.41 0.45 0.46 0.36 0.23 0.20 0.23 0.30 0.32 0.35 0.39 0.44 0.43 0.41 0.32 0.35 0.36 0.36 0.35 0.31 0.34 0.41 0.53 0.71 0.98 1.36 1.49 1.53 1.47 1.45
0.32 0.38 0.44 0.55 0.61 0.57 0.55 0.56 0.56 0.59 0.54 0.50 0.46 0.50 0.54 0.59 0.52 0.30 0.24 0.28 0.35 0.41 0.50 0.50 0.44 0.40 0.37 0.31 0.34 0.40 0.37 0.35 0.36 0.37 0.38 0.41 0.47 0.64 0.93 1.17 1.21 1.16 1.07
0.31 0.36 0.46 0.61 0.68 0.67 0.71 0.74 0.71 0.67 0.66 0.66 0.61 0.61 0.66 0.68 0.61 0.36 0.27 0.32 0.40 0.50 0.54 0.57 0.52 0.42 0.31 0.29 0.32 0.39 0.39 0.39 0.49 0.51 0.51 0.51 0.53 0.57 0.66 0.83 1.01 1.04 0.95
0.34 0.41 0.53 0.61 0.57 0.56 0.74 0.82 0.84 0.83 0.80 0.80 0.78 0.73 0.73 0.75 0.63 0.44 0.29 0.34 0.45 0.57 0.61 0.63 0.64 0.47 0.35 0.34 0.33 0.34 0.36 0.37 0.47 0.55 0.54 0.51 0.51 0.52 0.55 0.67 0.83 0.92 0.99
0.42 0.48 0.55 0.59 0.65 0.74 0.81 0.84 0.88 0.91 0.88 0.83 0.85 0.83 0.83 0.89 0.81 0.45 0.35 0.41 0.50 0.60 0.66 0.65 0.62 0.52 0.42 0.38 0.41 0.41 0.37 0.39 0.46 0.53 0.53 0.46 0.43 0.48 0.59 0.72 0.84 0.92 0.96
0.50 0.50 0.52 0.59 0.65 0.80 0.95 0.95 0.91 0.89 0.93 0.93 0.90 0.87 0.88 0.94 0.95 0.74 0.58 0.61 0.65 0.70 0.70 0.69 0.62 0.59 0.52 0.49 0.51 0.46 0.41 0.47 0.51 0.52 0.55 0.57 0.56 0.59 0.63 0.69 0.77 0.83 0.88
0.62 0.56 0.55 0.60 0.69 0.81 0.90 0.97 0.91 0.89 0.77 0.79 0.81 0.83 0.81 0.86 0.88 0.76 0.71 0.82 0.90 0.91 0.89 0.90 0.84 0.77 0.68 0.62 0.63 0.63 0.61 0.63 0.59 0.60 0.65 0.71 0.69 0.63 0.61 0.64 0.74 0.77 0.73
0.81 0.75 0.71 0.71 0.76 0.80 0.87 0.87 0.74 0.65 0.54 0.51 0.52 0.54 0.54 0.57 0.66 0.63 0.62 0.74 0.85 0.92 0.92 0.92 0.91 0.85 0.78 0.76 0.77 0.76 0.73 0.71 0.66 0.66 0.68 0.73 0.76 0.70 0.63 0.63 0.69 0.73 0.69
0.93 0.90 0.87 0.80 0.81 0.86 0.91 0.97 0.94 0.78 0.63 0.52 0.43 0.38 0.39 0.44 0.54 0.58 0.61 0.72 0.82 0.89 0.89 0.90 0.87 0.86 0.80 0.79 0.80 0.79 0.75 0.74 0.73 0.73 0.72 0.73 0.78 0.78 0.73 0.68 0.65 0.68 0.70
0.93 0.91 0.89 0.87 0.85 0.88 0.92 0.94 1.00 1.05 0.95 0.78 0.59 0.45 0.39 0.39 0.44 0.53 0.62 0.73 0.86 0.88 0.85 0.87 0.86 0.84 0.82 0.79 0.77 0.78 0.79 0.80 0.76 0.72 0.73 0.74 0.77 0.76 0.77 0.71 0.65 0.62 0.66
0.90 0.88 0.84 0.86 0.87 0.86 0.89 0.90 0.91 0.99 1.00 0.95 0.82 0.64 0.51 0.44 0.45 0.55 0.60 0.69 0.86 0.90 0.89 0.87 0.83 0.78 0.77 0.77 0.75 0.73 0.73 0.73 0.73 0.75 0.73 0.71 0.74 0.71 0.68 0.67 0.66 0.65 0.66
0.91 0.83 0.77 0.77 0.81 0.83 0.85 0.88 0.87 0.95 0.97 0.98 0.89 0.74 0.61 0.52 0.54 0.59 0.63 0.75 0.90 0.92 0.86 0.80 0.79 0.73 0.71 0.71 0.72 0.71 0.70 0.70 0.72 0.76 0.76 0.73 0.71 0.65 0.59 0.58 0.62 0.61 0.57
0.93 0.83 0.70 0.69 0.72 0.78 0.84 0.86 0.86 0.89 0.91 0.93 0.83 0.64 0.53 0.50 0.57 0.64 0.72 0.83 0.91 0.84 0.77 0.72 0.71 0.66 0.62 0.61 0.60 0.61 0.62 0.65 0.66 0.69 0.70 0.71 0.71 0.65 0.58 0.56 0.58 0.60 0.60
0.98 0.90 0.77 0.67 0.65 0.71 0.78 0.83 0.85 0.84 0.84 0.84 0.77 0.57 0.48 0.45 0.51 0.59 0.65 0.73 0.78 0.74 0.70 0.66 0.62 0.55 0.51 0.50 0.49 0.53 0.57 0.59 0.61 0.63 0.63 0.64 0.68 0.62 0.59 0.56 0.55 0.57 0.61
0.90 0.84 0.75 0.59 0.58 0.64 0.71 0.81 0.82 0.77 0.78 0.78 0.69 0.57 0.50 0.51 0.51 0.56 0.62 0.65 0.65 0.67 0.64 0.56 0.50 0.46 0.44 0.42 0.40 0.42 0.45 0.48 0.49 0.51 0.53 0.56 0.61 0.60 0.58 0.54 0.51 0.53 0.54
0.76 0.77 0.73 0.56 0.52 0.66 0.74 0.80 0.77 0.70 0.72 0.69 0.59 0.54 0.51 0.52 0.51 0.52 0.54 0.55 0.55 0.54 0.51 0.47 0.42 0.39 0.36 0.36 0.37 0.37 0.39 0.41 0.42 0.45 0.45 0.47 0.52 0.55 0.55 0.52 0.50 0.51 0.54
0.71 0.70 0.72 0.61 0.53 0.62 0.72 0.76 0.73 0.66 0.62 0.56 0.49 0.48 0.48 0.45 0.46 0.48 0.48 0.49 0.50 0.46 0.42 0.39 0.39 0.38 0.35 0.32 0.33 0.34 0.35 0.34 0.36 0.40 0.42 0.44 0.45 0.52 0.52 0.48 0.46 0.50 0.53
0.69 0.68 0.71 0.68 0.61 0.62 0.69 0.72 0.70 0.60 0.53 0.46 0.42 0.41 0.43 0.42 0.41 0.42 0.41 0.42 0.42 0.41 0.39 0.38 0.35 0.31 0.29 0.27 0.25 0.27 0.27 0.27 0.27 0.32 0.38 0.42 0.46 0.50 0.51 0.48 0.44 0.45 0.47